Change the Weather History Date:

Monday, December 2, 2013

  Actual Average Record
Temperature  
Mean Temperature 29 °F -  
Max Temperature 32 °F 35 °F 54 °F (1982)
Min Temperature 26 °F 27 °F -12 °F (1976)
Degree Days  
Heating Degree Days 36    
Moisture  
Dew Point 21 °F    
Average Humidity 73    
Maximum Humidity 84    
Minimum Humidity 55    
Precipitation  
Precipitation 0.00 in - - ()
Sea Level Pressure  
Sea Level Pressure 29.94 in    
Wind  
Wind Speed 3 mph (NE)    
Max Wind Speed 10 mph    
Max Gust Speed -    
Visibility 10 miles    
Events      
Averages and records for this station are not official NWS values.
T = Trace of Precipitation, MM = Missing Value Source: NWS Daily Summary

Daily Weather History Graph

Daily Weather History Graph

Search for Another Location

Airport or City:

Trip Planner

Search our weather history database for the weather conditions in past years. The results will help you decide how hot, cold, wet, or windy it might be!

Date:

Astronomy

Dec. 02, 2013 Rise Set
Actual Time 8:00 AM EST 4:55 PM EST
Civil Twilight 7:27 AM EST 5:28 PM EST
Nautical Twilight 6:49 AM EST 6:06 PM EST
Astronomical Twilight 6:13 AM EST 6:42 PM EST
Moon 7:23 AM EST (12/2) 4:58 PM EST (12/2)
Length of Visible Light 10h 01m
Length of Day
8h 54m
Waning Crescent, 0% of the Moon is Illuminated
Dec 2
Waning Crescent
Dec 2
New
Dec 9
First Quarter
Dec 17
Full
Dec 25
Last Quarter

Hourly Weather History & Observations

Time (EST) Temp. Windchill Dew Point Humidity Pressure Visibility Wind Dir Wind Speed Gust Speed Precip Events Conditions
12:15 AM 29.1 °F 25.4 °F 22.5 °F 76% 30.00 in 10.0 mi East 3.5 mph - N/A   Overcast
12:35 AM 29.3 °F - 23.0 °F 77% 30.00 in 10.0 mi Calm Calm - N/A   Overcast
12:54 AM 28.9 °F - 22.8 °F 78% 30.00 in 10.0 mi Calm Calm - N/A   Overcast
1:15 AM 28.8 °F - 23.7 °F 81% 29.99 in 10.0 mi Calm Calm - N/A   Overcast
1:35 AM 28.8 °F - 23.2 °F 80% 29.98 in 10.0 mi Calm Calm - N/A   Overcast
1:54 AM 28.4 °F - 23.5 °F 82% 29.98 in 10.0 mi Calm Calm - N/A   Overcast
2:15 AM 28.4 °F 24.6 °F 23.7 °F 83% 29.98 in 10.0 mi NNE 3.5 mph - N/A   Overcast
2:35 AM 28.2 °F 23.1 °F 23.7 °F 83% 29.98 in 10.0 mi NNE 4.6 mph - N/A   Overcast
2:54 AM 28.6 °F 24.8 °F 23.7 °F 82% 29.98 in 10.0 mi NNE 3.5 mph - N/A   Overcast
3:15 AM 28.9 °F 25.2 °F 23.5 °F 80% 29.97 in 10.0 mi NNE 3.5 mph - N/A   Overcast
3:35 AM 28.6 °F - 23.2 °F 80% 29.97 in 10.0 mi Calm Calm - N/A   Overcast
3:55 AM 28.4 °F - 23.4 °F 81% 29.97 in 10.0 mi Calm Calm - N/A   Overcast
4:15 AM 28.2 °F - 23.5 °F 83% 29.96 in 10.0 mi Calm Calm - N/A   Overcast
4:34 AM 28.0 °F - 23.7 °F 84% 29.96 in 10.0 mi Calm Calm - N/A   Overcast
4:55 AM 28.0 °F - 23.5 °F 83% 29.95 in 10.0 mi Calm Calm - N/A   Overcast
5:15 AM 28.4 °F 24.6 °F 23.5 °F 82% 29.95 in 10.0 mi NE 3.5 mph - N/A   Overcast
5:34 AM 28.4 °F 23.3 °F 23.5 °F 82% 29.95 in 10.0 mi NE 4.6 mph - N/A   Overcast
5:55 AM 28.8 °F 25.0 °F 23.4 °F 80% 29.95 in 10.0 mi NE 3.5 mph - N/A   Overcast
6:15 AM 28.8 °F 23.7 °F 23.5 °F 81% 29.95 in 10.0 mi NE 4.6 mph - N/A   Overcast
6:34 AM 28.9 °F 23.9 °F 22.6 °F 77% 29.95 in 10.0 mi NE 4.6 mph - N/A   Overcast
6:55 AM 29.1 °F 23.0 °F 21.0 °F 72% 29.95 in 10.0 mi NE 5.8 mph - N/A   Overcast
7:15 AM 29.1 °F 22.1 °F 19.6 °F 68% 29.95 in 10.0 mi NE 6.9 mph - N/A   Overcast
7:34 AM 28.9 °F 22.8 °F 20.1 °F 70% 29.95 in 10.0 mi NE 5.8 mph - N/A   Overcast
7:54 AM 28.8 °F 22.6 °F 20.3 °F 71% 29.95 in 10.0 mi ENE 5.8 mph - N/A   Overcast
8:15 AM 28.4 °F 24.6 °F 20.3 °F 72% 29.95 in 10.0 mi NE 3.5 mph - N/A   Overcast
8:34 AM 28.4 °F 23.3 °F 20.7 °F 73% 29.96 in 10.0 mi NE 4.6 mph - N/A   Overcast
8:55 AM 28.4 °F 22.2 °F 21.2 °F 74% 29.96 in 10.0 mi NNE 5.8 mph - N/A   Overcast
9:15 AM 28.6 °F 22.4 °F 21.7 °F 76% 29.95 in 10.0 mi NNE 5.8 mph - N/A   Overcast
9:34 AM 28.4 °F 22.2 °F 21.4 °F 75% 29.95 in 10.0 mi NNE 5.8 mph - N/A   Overcast
9:55 AM 28.4 °F 21.2 °F 21.4 °F 75% 29.95 in 10.0 mi NNE 6.9 mph - N/A   Overcast
10:15 AM 28.8 °F 23.7 °F 21.2 °F 73% 29.95 in 10.0 mi NE 4.6 mph - N/A   Overcast
10:34 AM 28.9 °F 25.2 °F 20.7 °F 71% 29.95 in 10.0 mi NE 3.5 mph - N/A   Overcast
10:55 AM 29.3 °F 25.6 °F 20.3 °F 69% 29.94 in 10.0 mi ENE 3.5 mph - N/A   Overcast
11:15 AM 29.7 °F 23.7 °F 19.9 °F 67% 29.94 in 10.0 mi NE 5.8 mph - N/A   Overcast
11:34 AM 29.1 °F 24.1 °F 19.6 °F 68% 29.94 in 10.0 mi NE 4.6 mph - N/A   Scattered Clouds
11:55 AM 29.7 °F 26.1 °F 19.2 °F 65% 29.93 in 10.0 mi North 3.5 mph - N/A   Clear
12:15 PM 30.7 °F 27.3 °F 18.9 °F 61% 29.93 in 10.0 mi NE 3.5 mph - N/A   Clear
12:34 PM 31.3 °F - 18.5 °F 59% 29.93 in 10.0 mi Calm Calm - N/A   Clear
12:55 PM 31.1 °F - 18.1 °F 59% 29.93 in 10.0 mi Calm Calm - N/A   Clear
1:15 PM 32.0 °F - 17.2 °F 55% 29.92 in 10.0 mi Calm Calm - N/A   Clear
1:34 PM 31.8 °F 28.5 °F 19.0 °F 59% 29.92 in 10.0 mi NNE 3.5 mph - N/A   Clear
1:55 PM 31.3 °F - 19.4 °F 61% 29.92 in 10.0 mi Calm Calm - N/A   Clear
2:15 PM 30.7 °F - 19.0 °F 62% 29.91 in 10.0 mi Calm Calm - N/A   Clear
2:34 PM 32.2 °F - 19.4 °F 59% 29.91 in 10.0 mi Calm Calm - N/A   Clear
2:55 PM 32.0 °F 28.7 °F 19.2 °F 59% 29.91 in 10.0 mi North 3.5 mph - N/A   Clear
3:15 PM 32.0 °F 28.7 °F 19.2 °F 59% 29.90 in 10.0 mi North 3.5 mph - N/A   Clear
3:35 PM 32.0 °F - 19.8 °F 61% 29.90 in 10.0 mi Calm Calm - N/A   Clear
3:55 PM 32.0 °F - 20.3 °F 62% 29.90 in 10.0 mi Calm Calm - N/A   Clear
4:14 PM 32.0 °F - 20.7 °F 63% 29.90 in 10.0 mi Calm Calm - N/A   Clear
4:35 PM 30.4 °F 25.6 °F 20.3 °F 66% 29.90 in 10.0 mi NNE 4.6 mph - N/A   Clear
4:55 PM 29.1 °F 23.0 °F 19.9 °F 69% 29.91 in 10.0 mi NNE 5.8 mph - N/A   Clear
5:14 PM 29.1 °F 24.1 °F 19.4 °F 67% 29.91 in 10.0 mi NE 4.6 mph - N/A   Clear
5:35 PM 29.1 °F 23.0 °F 19.9 °F 69% 29.91 in 10.0 mi NNE 5.8 mph - N/A   Clear
5:55 PM 28.0 °F 21.7 °F 19.8 °F 71% 29.91 in 10.0 mi NE 5.8 mph - N/A   Clear
6:14 PM 28.6 °F 20.7 °F 19.9 °F 70% 29.91 in 10.0 mi NE 8.1 mph - N/A   Clear
6:35 PM 28.6 °F 21.5 °F 19.6 °F 69% 29.91 in 10.0 mi NE 6.9 mph - N/A   Clear
6:55 PM 28.8 °F 20.9 °F 20.3 °F 71% 29.91 in 10.0 mi NE 8.1 mph - N/A   Clear
7:14 PM 28.6 °F 20.7 °F 20.3 °F 71% 29.92 in 10.0 mi NE 8.1 mph - N/A   Clear
7:35 PM 28.0 °F 20.0 °F 20.1 °F 72% 29.93 in 10.0 mi NE 8.1 mph - N/A   Clear
7:55 PM 28.2 °F 20.2 °F 20.3 °F 72% 29.93 in 10.0 mi NE 8.1 mph - N/A   Clear
8:14 PM 28.4 °F 20.4 °F 20.3 °F 72% 29.92 in 10.0 mi NE 8.1 mph - N/A   Clear
8:35 PM 28.2 °F 21.0 °F 20.8 °F 74% 29.93 in 10.0 mi NE 6.9 mph - N/A   Clear
8:55 PM 28.2 °F 20.2 °F 21.2 °F 75% 29.93 in 10.0 mi ENE 8.1 mph - N/A   Clear
9:14 PM 28.2 °F 20.2 °F 21.9 °F 77% 29.94 in 10.0 mi ENE 8.1 mph - N/A   Clear
9:35 PM 27.5 °F 19.3 °F 22.1 °F 80% 29.94 in 10.0 mi ENE 8.1 mph - N/A   Clear
9:55 PM 27.1 °F 18.9 °F 22.1 °F 81% 29.94 in 10.0 mi ENE 8.1 mph - N/A   Clear
10:14 PM 27.3 °F 19.9 °F 22.3 °F 81% 29.95 in 10.0 mi ENE 6.9 mph - N/A   Clear
10:35 PM 27.1 °F 18.2 °F 22.1 °F 81% 29.95 in 10.0 mi ENE 9.2 mph - N/A   Scattered Clouds
10:55 PM 26.8 °F 20.2 °F 22.1 °F 83% 29.95 in 10.0 mi East 5.8 mph - N/A   Scattered Clouds
11:14 PM 27.0 °F 19.5 °F 22.3 °F 83% 29.95 in 10.0 mi East 6.9 mph - N/A   Clear
11:35 PM 26.6 °F 17.5 °F 22.1 °F 83% 29.95 in 10.0 mi ENE 9.2 mph - N/A   Clear
11:55 PM 26.4 °F 16.6 °F 22.1 °F 84% 29.95 in 10.0 mi ENE 10.4 mph - N/A   Clear